This is the latest recevied weather packets stored in our database for station/object K5GTX. If no packets are shown the sender has not sent any weather packets the latest 10 day(s).
| Time | Temp. | Humidity | Pressure | Rain* | Wind** | Luminosity | Snow |
|---|---|---|---|---|---|---|---|
| 1777589764 | 16.67° C | 99% | 1019.8 hPa | 0 mm | - | 59 W/m² | - |
| 1777589463 | 16.67° C | 99% | 1019.9 hPa | 0 mm | - | 77 W/m² | - |
| 1777589158 | 16.67° C | 99% | 1019.9 hPa | 0 mm | - | 61 W/m² | - |
| 1777588854 | 16.67° C | 99% | 1020.1 hPa | 0 mm | - | 50 W/m² | - |
| 1777588550 | 16.67° C | 99% | 1020.3 hPa | 0 mm | - | 43 W/m² | - |
| 1777588246 | 16.67° C | 99% | 1019.9 hPa | 0 mm | - | 42 W/m² | - |
| 1777587941 | 16.67° C | 99% | 1019.9 hPa | 0 mm | - | 55 W/m² | - |
| 1777587638 | 16.67° C | 99% | 1019.9 hPa | 0 mm | - | 44 W/m² | - |
| 1777587332 | 16.67° C | 99% | 1020 hPa | 0 mm | - | 57 W/m² | - |
| 1777587027 | 16.67° C | 99% | 1020 hPa | 0 mm | - | 57 W/m² | - |
| 1777586724 | 16.67° C | 99% | 1020.5 hPa | 0 mm | - | 42 W/m² | - |
| 1777586420 | 16.67° C | 99% | 1020.3 hPa | 0 mm | - | 49 W/m² | - |
| 1777586119 | 16.67° C | 99% | 1020.5 hPa | 0 mm | - | 34 W/m² | - |
| 1777585818 | 16.67° C | 99% | 1020.4 hPa | 0 mm | - | 38 W/m² | - |
| 1777585517 | 16.67° C | 99% | 1020.6 hPa | 0 mm | - | 38 W/m² | - |
| 1777585213 | 16.67° C | 99% | 1020.7 hPa | 0 mm | - | 38 W/m² | - |
| 1777584909 | 16.67° C | 99% | 1020.7 hPa | 0 mm | - | 38 W/m² | - |
| 1777584607 | 16.67° C | 99% | 1020.5 hPa | 0 mm | - | 43 W/m² | - |
| 1777584303 | 16.67° C | 99% | 1020.7 hPa | 0 mm | - | 50 W/m² | - |
| 1777583998 | 16.67° C | 99% | 1020.3 hPa | 0 mm | - | 76 W/m² | - |
| 1777583693 | 16.67° C | 99% | 1020.1 hPa | 0 mm | - | 79 W/m² | - |
| 1777583393 | 17.22° C | 99% | 1020.3 hPa | 0 mm | - | 91 W/m² | - |
| 1777583092 | 16.67° C | 99% | 1020.1 hPa | 0 mm | - | 98 W/m² | - |
| 1777582789 | 17.22° C | 99% | 1020 hPa | 0 mm | - | 117 W/m² | - |
| 1777582484 | 16.67° C | 99% | 1020.1 hPa | 0 mm | - | 93 W/m² | - |
* Rain latest hour (hover to see other rain measurements)
** Current wind speed in m/s (hover to see current wind gust speed)